FENGYUN 1C DEB

Satellite information

Favourite Embed

Satellite Type and Status

DEBRISIN ORBIT

Key statistics

Satellite FENGYUN 1C DEB at a glance.

Uptime

9714

Days in orbit

Revolutions

≈ 14.2

Per day

Orbit

SSO

Sun Synchronous Orbit

Inclination

96.7

Latest

Satellite identification and parameters

Extended collection of information and parameters for FENGYUN 1C DEB.

Object identification

Identified? True

Debris? True

Object name: FENGYUN 1C DEB

International designator: 1999-025DAM

Object number (NORAD): 32425

Object ID (CCSDS): 32425

Country: PEOPLES REPUBLIC OF CHINA (PRC)

Current information (Y/N): Y

RCS size: SMALL

Orbital parameters

Period: 101.643 minutes

Inclination: 96.701 deg

SMA: 7214.614 km

Apoapsis: 1004.045 km

Periapsis: 668.913 km

RAAN: 130.1238 deg

Eccentricy: 0.02322591

Argument of periapsis: 319.3009 deg

Mean anomaly: 39.1014 deg

Mean motion: 14.16717033 rev/day

Mean motion (dot): 0.00001869 rev/day2

B* drag term: 0.00073001869 1/REarth

Two-line elements (TLE)

Creation date: Dec. 6, 2025, 12:48 p.m.

Reference frame: TEME

Reference center: EARTH

Epoch: Dec. 6, 2025, 4:16 a.m. UTC

TLE line 0: 0 FENGYUN 1C DEB

TLE line 1: 1 32425U 99025DAM 25340.17826783 .00001869 00000-0 73002-3 0 9996

TLE line 2: 2 32425 96.7010 130.1238 0232259 319.3009 39.1014 14.16717033694423

Live tracking on map

Real-time ground track for satellite FENGYUN 1C DEB.

In-orbit conjunctions

A list of the most updated potential collisions computed for object FENGYUN 1C DEB.

Target Orbit TCA Probability of collision Miss distance Type
SL-8 R/B LEO 2025-10-14 07:51:37 0.000823878 45.0 (m) ROCKET BODY
KITSAT B SSO 2024-12-29 23:26:33 0.0001629037 333.0 (m) PAYLOAD
CZ-6A DEB SSO 2024-11-09 02:12:41 0.0009023448 57.0 (m) DEBRIS
COSMOS 1275 DEB LEO 2024-10-17 16:25:57 0.0001528328 119.0 (m) DEBRIS
CZ-6A DEB LEO 2024-10-07 05:58:07 0.0003239082 128.0 (m) DEBRIS

Associated space launch

Chinese polar orbiting meteorological satellite

FENGYUN 1C DEB was lifted into orbit during the mission ‘Long March 4B | Feng Yun 1C’, on board a Long March 4B space rocket.

The launch took place on May 10, 1999, 1:33 a.m. from Launch Complex 7.

For more information about the launch, click the button.

Launch to space Long March 4B | Feng Yun 1C
Long March 4B | Feng Yun 1C

Agency: N/A

Status: Launch Successful

Launch date: May 10, 1999, 1:33 a.m. UTC

Rocket: Long March 4B

Launch pad: Launch Complex 7

Location: Taiyuan Satellite Launch Center, People's Republic of China

...

Latest news about this satellite

There are no fresh news available about this satellite. Check back as we update our databases every day.


Newsletter sign-up

Weekly statistics, charts and insights to help you stay on top of the space industry.